Wind_Speed
6 5 5 4 3 4 3 3 4 4 3 2 1 2 2 2 2 2 2 2 2 2 3 3 4 5 6 6 6 6 7 8 9 9 10 10 10 10 10 10 10 10 10
6 5 5 4 3 3 3 3 3 2 2 2 2 1 2 2 2 2 2 2 3 3 4 4 5 6 7 6 6 6 6 8 9 10 11 11 12 12 12 12 12 12 12
6 6 5 4 4 4 3 3 3 2 2 2 2 2 2 2 2 3 3 3 4 4 5 5 5 6 7 7 7 7 8 9 9 10 11 11 12 13 13 13 13 13 13
7 7 6 5 5 5 4 4 3 3 3 3 3 3 3 3 4 4 5 5 6 6 6 6 6 6 6 7 6 7 9 10 11 11 11 12 13 13 14 15 15 14 15
8 7 7 6 6 6 5 4 4 4 4 4 4 4 5 5 6 6 6 6 6 7 7 8 8 8 8 8 8 9 10 10 11 11 12 13 13 13 14 15 15 15 14
7 7 7 6 6 6 5 5 5 5 5 5 4 4 5 6 7 7 7 7 7 7 8 8 9 10 10 9 10 10 11 11 12 12 13 14 12 13 13 13 14 14 15
6 6 6 6 6 6 5 5 5 5 5 5 6 6 6 6 7 7 7 8 8 8 8 9 10 10 10 10 10 11 11 12 13 13 13 13 13 13 14 14 14 14 16
6 6 6 6 6 7 7 6 5 5 5 6 6 7 7 7 7 7 8 9 9 9 9 9 10 10 10 10 11 11 12 13 13 13 13 13 13 14 14 14 15 16 16
6 6 6 7 7 7 6 6 6 5 6 6 6 7 7 8 8 8 9 10 10 10 10 10 11 11 11 11 11 13 13 13 13 13 14 14 15 14 14 14 16 16 16
7 7 7 7 7 7 7 6 6 6 6 6 7 7 7 8 9 9 9 10 10 10 11 11 12 12 12 12 12 13 14 13 14 15 15 16 16 15 15 15 16 16 17
8 8 8 8 8 8 8 7 6 7 7 7 7 7 8 9 9 9 10 10 11 11 11 12 12 13 12 12 13 14 14 15 15 16 16 17 17 17 17 16 17 18 18
9 9 9 9 8 9 8 7 7 8 8 8 8 8 9 9 9 10 10 11 12 12 12 12 13 13 13 14 14 15 15 16 16 17 18 18 18 18 18 18 19 19 19
9 9 9 9 9 9 9 8 8 9 9 8 8 9 9 10 10 10 11 12 13 14 14 14 14 14 14 15 16 16 17 17 17 18 18 18 18 18 19 19 19 19 20
10 10 9 9 9 9 9 9 9 9 9 9 9 9 9 10 11 11 12 13 14 15 15 15 15 15 15 16 16 17 17 17 18 18 18 19 19 19 19 19 19 20 20
11 10 10 10 10 10 10 9 9 9 9 9 9 9 10 11 11 12 13 14 15 16 16 16 16 16 16 16 17 18 18 18 18 19 19 19 19 19 19 19 19 20 20
12 12 11 12 11 11 10 10 9 9 10 10 10 10 11 11 12 13 14 15 16 17 17 17 16 16 17 17 17 18 18 18 18 19 19 20 20 19 19 18 19 19 19
13 13 12 12 12 12 11 11 10 10 10 10 11 11 12 13 13 14 16 16 17 18 18 18 17 17 18 17 17 18 18 19 19 20 20 20 20 19 19 19 19 19 19
13 13 13 13 12 12 12 12 12 11 11 11 12 12 13 14 15 16 17 17 18 19 18 18 18 18 18 18 18 19 19 19 20 20 20 20 20 20 20 20 20 20 20
14 14 14 14 14 14 13 13 13 12 12 13 14 14 15 15 16 17 18 19 19 19 19 19 19 19 19 19 19 19 20 20 21 21 21 21 20 20 20 20 20 21 21
14 15 15 15 15 15 14 14 14 14 14 15 15 16 17 17 18 19 19 20 21 20 20 20 20 20 20 20 20 20 21 21 21 22 22 22 21 20 21 21 21 21 21
16 16 16 16 16 15 15 15 15 15 16 17 17 18 18 19 19 20 20 21 21 21 21 21 21 20 21 21 22 22 22 22 23 23 22 22 22 21 21 21 21 21 21
17 17 17 17 17 17 17 17 17 17 17 18 19 19 19 20 21 21 21 22 22 22 22 23 22 21 21 22 23 24 23 23 24 24 23 23 23 22 22 22 22 23 23
19 19 19 18 19 19 19 19 19 19 19 19 20 20 20 21 22 21 22 22 23 23 23 24 23 23 23 24 25 25 25 24 24 24 24 23 23 23 23 23 23 24 24
21 21 21 21 21 21 21 22 22 22 22 22 22 22 22 22 22 23 23 24 25 24 25 25 24 24 24 25 26 26 26 26 26 26 25 25 24 24 24 24 25 24 25
23 23 23 23 23 23 23 24 24 24 24 24 23 23 23 23 24 24 25 26 26 26 27 26 25 25 26 27 27 27 27 28 27 26 26 26 26 25 25 26 26 27 27
25 25 25 25 25 25 25 25 27 26 25 25 26 26 26 25 26 26 27 27 27 27 27 26 25 26 27 27 27 28 28 28 27 27 27 27 27 27 27 26 27 28 28
Wind_Direction
77 72 71 71 80 76 75 80 83 86 85 93 82 53 39 35 33 13 6 354 342 337 330 318 302 299 299 294 292 288 275 270 274 275 270 271 271 263 263 268 264 265 266
67 71 68 68 69 65 57 61 67 73 64 66 58 28 2 351 330 338 346 343 325 318 315 317 312 307 309 302 296 289 277 275 276 276 272 272 271 270 266 264 266 266 267
57 66 76 70 68 61 55 50 41 27 20 22 23 16 1 329 314 316 316 318 314 308 308 314 314 312 311 309 296 289 280 277 279 280 279 278 277 271 267 264 265 265 265
52 58 65 58 46 46 41 39 31 24 14 6 3 5 2 343 339 326 319 316 312 308 306 307 305 304 304 305 299 295 292 287 285 284 280 281 282 276 273 268 267 268 266
48 49 49 42 35 36 35 32 25 19 13 7 357 354 351 348 348 343 336 328 319 314 309 305 301 296 298 292 294 295 293 294 293 289 288 288 289 282 277 271 269 269 267
37 37 37 33 25 23 20 16 15 14 11 2 351 349 344 343 344 339 339 337 329 321 318 316 310 302 300 294 294 298 296 295 295 293 292 293 290 285 279 279 276 274 270
29 28 26 23 19 18 15 14 14 11 6 0 357 349 339 338 339 341 334 336 334 329 326 322 320 315 306 302 302 303 303 301 301 298 298 296 293 291 285 284 279 274 274
22 19 18 19 19 16 15 13 10 10 6 359 350 344 344 339 334 335 331 330 328 324 322 321 322 319 317 313 310 309 308 305 304 307 303 299 296 293 292 283 279 276 274
15 11 14 15 13 11 12 8 4 1 359 353 346 341 344 346 340 336 332 330 328 323 319 318 316 313 312 309 309 311 311 312 312 312 308 304 300 296 295 288 284 279 277
14 10 8 5 3 1 0 356 351 348 346 341 343 341 340 339 337 333 333 334 333 329 323 320 317 314 312 308 306 308 310 311 309 309 308 306 303 300 297 292 288 287 282
5 1 359 355 353 354 352 347 343 341 342 343 345 346 343 341 340 337 337 336 336 334 329 326 324 321 315 312 311 310 308 307 307 307 306 304 300 298 295 291 290 288 286
360 355 354 352 350 349 347 345 339 335 336 341 342 340 338 337 336 335 334 332 333 331 329 328 323 320 318 313 311 312 310 308 306 305 303 303 300 296 294 291 288 285 284
355 353 352 349 346 346 343 339 334 331 330 332 336 338 337 337 336 333 333 333 332 329 326 324 323 319 317 314 312 313 311 309 308 306 304 303 302 298 296 293 290 287 285
349 349 347 345 345 345 343 337 333 329 326 326 329 332 333 334 334 332 331 330 331 327 322 320 320 320 319 317 315 316 314 311 310 308 306 304 304 300 297 295 293 292 289
345 344 343 343 341 340 339 335 335 332 330 328 326 327 328 329 331 331 331 330 329 328 325 321 319 318 317 316 315 317 315 311 311 310 308 307 306 305 301 297 296 295 293
343 338 333 334 333 332 332 332 329 328 328 324 324 324 325 327 328 329 330 329 328 327 326 325 323 320 319 316 316 315 314 313 312 312 311 310 309 308 307 305 301 300 297
335 335 328 328 329 327 324 325 325 324 324 322 320 319 321 323 325 326 326 326 327 328 326 325 326 323 321 320 317 318 317 317 316 314 312 311 311 309 307 306 304 300 299
334 333 331 328 326 323 322 321 319 318 319 318 317 317 317 318 320 321 321 322 322 323 323 322 322 322 319 320 319 317 317 317 317 316 314 312 309 307 306 304 304 303 301
333 331 328 326 324 322 318 318 318 314 315 315 313 313 314 314 316 318 319 319 319 320 318 318 318 319 318 317 317 318 318 317 315 314 313 312 309 307 306 305 305 305 303
325 324 324 324 320 318 315 312 314 311 310 311 312 310 312 313 314 315 315 315 316 318 318 317 316 317 317 317 317 317 317 317 317 315 314 312 309 307 307 307 305 305 304
318 318 319 321 319 316 312 308 308 308 307 306 307 307 308 309 311 312 313 315 315 316 316 317 316 315 315 316 316 316 315 316 316 315 315 313 311 309 308 307 305 304 304
313 314 313 315 314 312 309 303 302 305 306 305 306 306 306 307 309 311 312 313 314 314 314 315 316 316 315 315 314 314 313 313 315 315 314 312 310 308 308 307 306 304 303
309 310 309 309 309 307 304 303 301 302 303 304 306 306 306 308 309 311 313 314 314 314 314 313 314 316 315 314 314 313 312 311 312 312 311 311 310 308 307 306 306 304 302
306 306 305 303 303 302 299 299 299 299 300 301 303 305 306 307 308 308 309 312 313 312 313 313 314 314 314 313 312 312 312 311 310 310 309 309 309 308 307 306 305 304 303
303 303 303 301 301 300 297 296 296 296 297 298 299 302 303 303 303 304 304 307 309 309 310 311 312 312 311 311 311 312 311 310 309 308 307 307 307 307 306 305 304 304 303
299 300 300 300 299 299 297 294 293 295 296 296 297 299 300 299 299 301 302 305 307 307 307 308 310 311 310 311 311 312 312 309 308 307 306 306 305 306 306 305 304 303 303
Height
5886 5886 5886 5886 5886 5886 5886 5886 5886 5887 5887 5887 5888 5887 5888 5888 5888 5888 5888 5888 5888 5888 5888 5888 5887 5887 5887 5886 5886 5886 5885 5886 5886 5886 5886 5886 5887 5887 5887 5887 5887 5888 5888
5888 5887 5887 5887 5887 5887 5887 5887 5887 5887 5888 5888 5888 5888 5888 5888 5888 5888 5888 5888 5888 5888 5887 5887 5886 5886 5885 5885 5884 5884 5884 5884 5884 5884 5884 5884 5884 5884 5885 5884 5885 5885 5885
5889 5888 5888 5888 5888 5888 5888 5888 5888 5888 5888 5888 5888 5888 5888 5888 5888 5888 5887 5887 5887 5887 5886 5886 5885 5885 5884 5884 5883 5883 5883 5883 5882 5882 5882 5882 5882 5882 5882 5882 5882 5882 5882
5890 5890 5889 5889 5889 5888 5888 5888 5888 5888 5888 5888 5888 5888 5888 5888 5887 5887 5886 5886 5886 5886 5885 5885 5884 5883 5883 5882 5882 5882 5881 5881 5880 5880 5880 5879 5879 5879 5879 5879 5879 5879 5879
5892 5891 5891 5890 5890 5889 5889 5889 5888 5888 5888 5888 5888 5888 5888 5888 5887 5887 5886 5886 5885 5884 5884 5883 5883 5882 5881 5881 5880 5880 5879 5879 5878 5877 5877 5876 5876 5875 5875 5875 5875 5875 5875
5893 5893 5892 5892 5891 5890 5890 5889 5888 5888 5888 5888 5888 5888 5888 5887 5887 5886 5885 5885 5884 5883 5882 5882 5881 5880 5880 5879 5878 5878 5877 5876 5876 5875 5874 5873 5873 5872 5872 5871 5871 5871 5871
5894 5894 5893 5893 5892 5891 5890 5889 5889 5889 5889 5888 5888 5888 5887 5887 5886 5885 5885 5884 5883 5882 5881 5880 5879 5879 5878 5877 5876 5875 5875 5874 5873 5872 5871 5870 5869 5869 5868 5868 5867 5867 5867
5895 5895 5894 5893 5893 5892 5891 5890 5890 5890 5889 5888 5888 5888 5887 5887 5885 5885 5884 5883 5882 5881 5880 5879 5878 5877 5876 5875 5874 5873 5872 5871 5870 5869 5868 5867 5866 5865 5864 5864 5863 5863 5863
5896 5895 5895 5894 5893 5892 5891 5891 5890 5890 5889 5889 5888 5887 5886 5885 5884 5884 5882 5882 5881 5879 5878 5877 5876 5875 5874 5873 5872 5871 5869 5868 5867 5866 5864 5863 5862 5861 5860 5860 5859 5858 5858
5897 5896 5895 5894 5893 5892 5891 5891 5890 5889 5889 5888 5887 5886 5885 5884 5883 5882 5882 5880 5879 5878 5877 5876 5874 5873 5871 5871 5869 5868 5866 5865 5864 5862 5861 5859 5858 5857 5856 5855 5855 5854 5853
5897 5896 5895 5894 5893 5892 5891 5890 5889 5889 5888 5887 5886 5886 5884 5883 5882 5881 5880 5879 5878 5876 5875 5874 5872 5870 5869 5868 5866 5865 5863 5862 5860 5859 5857 5856 5854 5853 5852 5851 5850 5849 5848
5897 5896 5895 5893 5892 5891 5890 5889 5889 5888 5887 5886 5885 5885 5884 5882 5881 5880 5879 5877 5876 5875 5873 5872 5870 5868 5867 5865 5864 5862 5860 5859 5857 5855 5854 5852 5850 5849 5847 5846 5845 5844 5843
5897 5896 5894 5893 5892 5891 5889 5888 5888 5887 5886 5885 5884 5884 5882 5881 5880 5878 5877 5876 5874 5873 5871 5870 5868 5866 5864 5863 5861 5859 5857 5855 5853 5851 5850 5848 5846 5844 5842 5841 5840 5838 5837
5897 5895 5894 5892 5891 5890 5888 5887 5887 5886 5885 5884 5883 5882 5881 5880 5878 5877 5876 5874 5873 5871 5869 5867 5865 5863 5862 5860 5858 5856 5853 5852 5850 5848 5845 5843 5841 5839 5838 5836 5834 5833 5832
5896 5894 5893 5892 5890 5888 5887 5886 5885 5884 5883 5882 5882 5880 5879 5878 5877 5875 5874 5872 5871 5868 5866 5864 5862 5860 5858 5857 5855 5853 5850 5848 5846 5844 5841 5839 5837 5835 5833 5831 5829 5828 5826
5895 5893 5892 5891 5889 5887 5886 5884 5883 5882 5881 5880 5880 5879 5877 5876 5875 5873 5871 5870 5868 5866 5863 5861 5859 5857 5855 5853 5851 5849 5847 5844 5842 5840 5838 5835 5833 5830 5828 5826 5824 5822 5820
5894 5892 5890 5889 5887 5886 5884 5882 5881 5880 5879 5878 5878 5876 5875 5874 5872 5871 5869 5867 5865 5863 5861 5858 5856 5854 5852 5850 5848 5846 5844 5841 5838 5836 5833 5831 5828 5826 5824 5821 5819 5817 5815
5892 5891 5889 5887 5885 5884 5882 5880 5879 5878 5877 5876 5875 5874 5873 5871 5870 5868 5866 5864 5862 5860 5858 5855 5853 5851 5848 5846 5844 5842 5840 5837 5834 5832 5829 5826 5824 5821 5819 5817 5814 5812 5810
5891 5889 5887 5885 5883 5881 5879 5878 5876 5875 5874 5873 5872 5871 5870 5868 5867 5865 5863 5861 5858 5856 5854 5852 5850 5847 5845 5843 5840 5838 5835 5833 5830 5827 5824 5822 5819 5816 5814 5811 5809 5807 5804
5889 5886 5884 5882 5880 5878 5877 5875 5874 5873 5872 5871 5869 5868 5867 5865 5863 5861 5859 5857 5855 5852 5850 5848 5846 5843 5841 5838 5836 5834 5831 5828 5825 5823 5820 5817 5814 5811 5809 5806 5804 5801 5799
5886 5884 5882 5879 5877 5876 5874 5873 5871 5870 5869 5868 5866 5864 5863 5861 5859 5857 5855 5853 5851 5848 5846 5844 5841 5839 5837 5834 5832 5829 5826 5823 5820 5818 5815 5812 5809 5806 5803 5801 5798 5796 5793
5883 5881 5879 5877 5875 5873 5871 5869 5868 5866 5865 5864 5862 5861 5859 5857 5855 5853 5851 5849 5847 5844 5842 5839 5837 5834 5832 5829 5827 5824 5821 5818 5815 5813 5810 5807 5804 5801 5798 5795 5793 5790 5788
5879 5878 5875 5873 5872 5870 5868 5866 5864 5862 5861 5859 5858 5856 5855 5853 5851 5849 5847 5845 5842 5839 5837 5834 5832 5829 5827 5824 5822 5819 5816 5813 5810 5807 5804 5801 5798 5796 5793 5789 5787 5784 5781
5876 5874 5872 5870 5868 5865 5863 5862 5860 5858 5856 5855 5854 5852 5850 5849 5846 5844 5842 5840 5837 5835 5832 5829 5827 5824 5822 5819 5816 5813 5810 5807 5804 5801 5798 5796 5792 5790 5787 5784 5781 5778 5775
5870 5868 5866 5864 5862 5860 5858 5856 5854 5853 5851 5850 5848 5846 5845 5843 5841 5838 5836 5834 5832 5829 5827 5824 5821 5819 5816 5813 5810 5807 5804 5801 5798 5795 5792 5789 5786 5783 5780 5777 5774 5771 5768
5864 5862 5860 5859 5857 5855 5853 5851 5848 5847 5846 5844 5842 5840 5838 5836 5835 5832 5830 5828 5825 5823 5820 5818 5815 5813 5810 5806 5803 5800 5797 5794 5791 5788 5784 5781 5779 5776 5773 5770 5767 5764 5761